Location: Rayville (historical)
(39.9992°N, 99.6815°W)
Time: 00:55:38
(UTC+00:00)

STARLINK-79 - Pass Details

Date: 18 February 2020
Orbit: 529 x 531 km, 53.0° (Epoch: 04 April)

Event Time Altitude Azimuth Distance (km) Brightness Sun altitude
Rises 01:20:55 0° 217° (SW) 2,652 7.8 -13.0°
Reaches altitude 10° 01:23:09 10° 213° (SSW) 1,767 6.7 -13.4°
Maximum altitude 01:27:03 54° 136° (SE) 646 3.7 -14.1°
Enters shadow 01:29:12 24° 68° (ENE) 1,114 4.6 -14.5°
